Regional Weather Roundup
Issued by NWS

Home | Current Version | Previous Version | Text Only | Print | Product List | Glossary On
Versions: 1 2 3 4 5 6 7 8 9 10 11 12 13 14 15 16 17 18 19 20 21 22 23 24 25 26 27 28 29 30 31 32 33 34 35 36 37 38 39 40 41 42 43 44 45 46 47 48 49 50
000
ASUS43 KLMK 281710
RWRKY
KENTUCKY REGIONAL WEATHER ROUNDUP
NATIONAL WEATHER SERVICE LOUISVILLE KY
100 PM EDT THU MAY 28 2015

NOTE "FAIR" INDICATES FEW OR NO CLOUDS BELOW 12,000 FEET
WITH NO SIGNIFICANT WEATHER AND/OR OBSTRUCTIONS TO VISIBILITY.

KYZ001>023-026-027-061>063-070>075-281800-
WESTERN AND SOUTH CENTRAL KENTUCKY

CITY           SKY/WX    TMP DP  RH WIND       PRES   REMARKS
PADUCAH        SUNNY     81  65  58 SE9       30.15F
HENDERSON      PTSUNNY   81  66  61 SE10      30.15S
OWENSBORO      PTSUNNY   81  67  62 S7        30.17F
HOPKINSVILLE   PTSUNNY   78  66  67 SE7       30.18F
BOWLING GREEN  PTSUNNY   78  66  66 E5        30.20F
GLASGOW        PTSUNNY   76  64  66 E7        30.21F
$$

KYZ024-025-028>034-038-045-046-053-281800-
NORTH CENTRAL KENTUCKY

CITY           SKY/WX    TMP DP  RH WIND       PRES   REMARKS
LOUISVILLE/SDF CLOUDY    74  66  76 SE13      30.21F
LOUISVILLE/LOU CLOUDY    74  66  76 SE10      30.22S
FORT KNOX      MOSUNNY   73  73  98 E8        30.19F
$$

KYZ035>037-039>044-047>052-055>060-089>105-281800-
NORTHEAST KENTUCKY

CITY           SKY/WX    TMP DP  RH WIND       PRES   REMARKS
LEXINGTON      PTSUNNY   76  66  71 VRB6      30.23F
COVINGTON      PTSUNNY   77  67  71 E3        30.23S
FRANKFORT        N/A    N/A N/A N/A MISG      30.22F
$$

KYZ054-064>069-076>088-106>120-281800-
SOUTHEAST KENTUCKY

CITY           SKY/WX    TMP DP  RH WIND       PRES   REMARKS
JACKSON        CLOUDY    76  63  64 CALM      30.26S
LONDON         LGT RAIN  73  61  65 CALM      30.26S
SOMERSET       DRIZZLE   70  63  78 CALM      30.26S
MIDDLESBORO    LGT RAIN  75  66  73 CALM      30.25S
MONTICELLO     CLOUDY    74  67  78 CALM      30.27S
$$



USA.gov is the U.S. government's official web portal to all federal, state and local government web resources and services.